This is the latest recevied weather packets stored in our database for station/object DK9XR-14. If no packets are shown the sender has not sent any weather packets the latest 1 day(s).
| Time | Temp. | Humidity | Pressure | Rain* | Wind** | Luminosity | Snow |
|---|---|---|---|---|---|---|---|
| 1778021281 | 11.11° C | 86% | 1010.6 hPa | 0 mm | 0 m/s | - | - |
| 1778020981 | 11.11° C | 85% | 1010.6 hPa | 0 mm | 0.45 m/s, 244° | - | - |
| 1778020682 | 11.11° C | 85% | 1010.4 hPa | 0 mm | 0 m/s | - | - |
| 1778020382 | 11.67° C | 85% | 1010.4 hPa | 0 mm | 0.45 m/s, 262° | - | - |
| 1778020082 | 11.67° C | 84% | 1010.4 hPa | 0 mm | 0.89 m/s, 231° | - | - |
| 1778019783 | 11.67° C | 84% | 1010.4 hPa | 0 mm | 0.89 m/s, 271° | - | - |
| 1778019492 | 11.67° C | 84% | 1010.4 hPa | 0 mm | 0 m/s | - | - |
| 1778019192 | 11.67° C | 84% | 1010.4 hPa | 0 mm | 0.45 m/s, 274° | - | - |
| 1778018894 | 11.67° C | 83% | 1010.4 hPa | 0 mm | 0.45 m/s, 281° | - | - |
| 1778018588 | 12.22° C | 83% | 1010.6 hPa | 0 mm | 0.45 m/s, 259° | - | - |
| 1778018279 | 12.22° C | 83% | 1010.4 hPa | 0 mm | 0.89 m/s, 283° | - | - |
| 1778017989 | 12.22° C | 83% | 1010.4 hPa | 0 mm | 0.89 m/s, 264° | - | - |
| 1778017677 | 12.22° C | 83% | 1010.4 hPa | 0 mm | 0.89 m/s, 251° | - | - |
| 1778017381 | 12.22° C | 83% | 1010.3 hPa | 0 mm | 0.89 m/s, 248° | - | - |
| 1778017081 | 12.22° C | 83% | 1010.3 hPa | 0 mm | 1.34 m/s, 209° | - | - |
| 1778016786 | 12.22° C | 82% | 1010.2 hPa | 0 mm | 0.89 m/s, 261° | - | - |
| 1778016482 | 12.78° C | 82% | 1010.3 hPa | 0 mm | 1.34 m/s, 266° | - | - |
| 1778016166 | 12.78° C | 82% | 1010.2 hPa | 0 mm | 1.34 m/s, 296° | - | - |
| 1778015865 | 12.78° C | 82% | 1010.1 hPa | 0 mm | 1.34 m/s, 268° | - | - |
| 1778015566 | 12.78° C | 81% | 1010.1 hPa | 0 mm | 1.79 m/s, 266° | - | - |
| 1778015264 | 12.78° C | 81% | 1010.1 hPa | 0 mm | 1.79 m/s, 231° | - | - |
| 1778014962 | 12.78° C | 82% | 1010 hPa | 0 mm | 0.89 m/s, 254° | - | - |
| 1778014663 | 12.78° C | 81% | 1010 hPa | 0 mm | 0.89 m/s, 203° | - | - |
| 1778014357 | 12.78° C | 82% | 1010.1 hPa | 0 mm | 1.34 m/s, 157° | - | - |
| 1778014058 | 13.33° C | 81% | 1010.2 hPa | 0 mm | 1.34 m/s, 261° | - | - |
* Rain latest hour (hover to see other rain measurements)
** Current wind speed in m/s (hover to see current wind gust speed)